{"data":{"norad_id":61978,"epoch":"2026-09-21T00:09:39.339648Z","epoch_age_seconds":141751,"freshness":"FRESH","line1":"1 61978U 24210V   26264.00670532  .00009503  00000+0  35422-3 0  9998","line2":"2 61978  42.9994 156.5598 0000325 219.6388 140.4440 15.27595882104752","mean_motion":15.27595882,"eccentricity":3.25e-5,"inclination_deg":42.9994,"raan_deg":156.5598,"arg_perigee_deg":219.6388,"mean_anomaly_deg":140.444,"bstar":0.00035422,"rev_number":10475,"period_min":94.265768647837,"perigee_km":482.77855302761,"apogee_km":483.22452703271,"semimajor_km":6861.1385400302,"source":"CELESTRAK","updated_at":"2026-09-22T09:00:49.480997Z"}}